STARLINK-35859, 67185

Orbit data source: Space-Track

STARLINK-35859, 67185 is a payload satellite owned by SpaceX/Seattle (US) in LEO that was launched on Wed, 17 Dec 2025 UTC via an FALCON 9 launch vehicle from the Air Force Eastern Test Range (AFETR). Payload-class satellites include a variety of spacecraft equipped with specific instruments for various scientific and technological missions. These include communications satellites like Starlink; space stations such as the ISS; scientific satellites like the Hubble; Earth observation satellites from companies like Planet Labs, Umbra, and HawkEye 360; GPS; miniature CubeSats for education and research; and military/defense satellites.

Loading next visibility...
Identifier
67185, 2025-303Y
Orbit
LEO
Country
Flag of USUS
Related business
Manufacturer
SpaceX/Seattle
Mission
Operational Commercial Communications
Bus & Motor
STARLINK V2MO, Unknown motor
Mass
575 kg wet, ~530 kg dry
Launch date (UTC)
2025-12-17 (6 months ago)
Launch vehicle
FALCON 9
Launch site
Air Force Eastern Test Range (AFETR)
Object type
Payload
Rocket body
Debris
Shape & HBR
Box + 2 Pan, 17.7 m
Radar Cross Section
36.964 m², Large (>1 m²)

Expand to show TLE details & history
Last TLE update: 16 hours ago

TLE from 16 hours ago
0 STARLINK-35859
1 67185U 25303Y   26171.18007455  .00014415  00000-0  53199-3 0  9992
2 67185  43.0034  91.5595 0001441 274.3147  85.7540 15.27601096 28416
Epoch: 2026-06-20T04:19Z
TLE epoch observation values (Epoch: 2026-06-20T04:19:18.441Z)
Latitude
-0°
Longitude
118.33426°
Altitude
482.689 km
Speed
7.626 km/s
True Right ascension
06h 06m 14s
True Declination
0° 00' 00"
Sunlit
Object was in daylight at epoch
Visualization orbit readout
Latitude
Unknown
Longitude
Unknown
Altitude
Unknown
Speed
Unknown
Apparent Right ascension
Unknown
Apparent Declination
Unknown
Sunlit
N/A
Visualization observer readout
Local Sidereal Time
07:14:15
Azimuth
Unknown
Elevation
Unknown
Doppler factor
Unknown
Orbital elements
Apogee altitude
485.92 km
Perigee altitude
483.942 km
Semi-major axis
6,863.068 km
Eccentricity
0.00014
Inclination
43.0034°
RAAN
91.5595°
Arg. of periapsis
274.3147°
True anomaly
85.77047°
Mean anomaly
85.754°
Eccentric anomaly
85.76223°
Mean motion
3.81738 °/min
Orbital period
94.31 mins
BSTAR
0.00053199
Loading maneuver chart data...
Computing Atmospheric mass density...
Loading historical data...
Loading historical data...
Loading historical data...
Loading historical data...
Loading historical data...
Loading historical data...
Loading historical data...

Documentation

Showing up to 5 results
|